Time,TemperatureF,DewpointF,PressureIn,WindDirection,WindDirectionDegrees,WindSpeedMPH,WindSpeedGustMPH,Humidity,HourlyPrecipIn,Conditions,Clouds,dailyrainin,SoftwareType,DateUTC
2013-11-15 00:02:00,40.3,15.4,30.17,SW,225,6.0,8.0,36,0.00,,,0.00,meteohub,2013-11-15 05:02:00,
2013-11-15 00:07:00,40.1,14.7,30.17,SSW,202,1.0,8.0,35,0.00,,,0.00,meteohub,2013-11-15 05:07:00,
2013-11-15 00:12:00,40.1,14.7,30.17,South,180,7.0,8.0,35,0.00,,,0.00,meteohub,2013-11-15 05:12:00,
2013-11-15 00:17:00,39.9,15.3,30.17,NNW,338,6.0,8.0,36,0.00,,,0.00,meteohub,2013-11-15 05:17:00,
2013-11-15 00:22:00,39.7,15.1,30.17,WSW,248,1.0,7.0,36,0.00,,,0.00,meteohub,2013-11-15 05:22:00,
2013-11-15 00:27:00,39.7,15.1,30.17,South,180,3.0,7.0,36,0.00,,,0.00,meteohub,2013-11-15 05:27:00,
2013-11-15 00:32:00,39.7,15.1,30.17,WSW,248,2.0,6.0,36,0.00,,,0.00,meteohub,2013-11-15 05:32:00,
2013-11-15 00:37:00,39.4,14.7,30.17,SSW,202,5.0,6.0,36,0.00,,,0.00,meteohub,2013-11-15 05:37:00,
2013-11-15 00:42:00,39.6,14.2,30.17,SW,225,4.0,8.0,35,0.00,,,0.00,meteohub,2013-11-15 05:42:00,
2013-11-15 00:47:00,39.6,14.2,30.17,SSW,202,3.0,8.0,35,0.00,,,0.00,meteohub,2013-11-15 05:47:00,
2013-11-15 00:52:00,39.6,14.2,30.17,SSW,202,5.0,8.0,35,0.00,,,0.00,meteohub,2013-11-15 05:52:00,
2013-11-15 00:57:00,39.4,14.0,30.17,SSW,202,3.0,7.0,35,0.00,,,0.00,meteohub,2013-11-15 05:57:00,
2013-11-15 01:02:00,39.4,14.0,30.17,NW,315,1.0,7.0,35,0.00,,,0.00,meteohub,2013-11-15 06:02:00,
2013-11-15 01:07:00,39.4,14.0,30.17,SSW,202,6.0,7.0,35,0.00,,,0.00,meteohub,2013-11-15 06:07:00,
2013-11-15 01:12:00,39.2,14.0,30.17,SW,225,5.0,7.0,35,0.00,,,0.00,meteohub,2013-11-15 06:12:00,
2013-11-15 01:17:00,39.2,14.0,30.17,SW,225,1.0,6.0,35,0.00,,,0.00,meteohub,2013-11-15 06:17:00,
2013-11-15 01:22:00,39.4,14.0,30.17,WSW,248,5.0,7.0,35,0.00,,,0.00,meteohub,2013-11-15 06:22:00,
2013-11-15 01:27:00,39.4,14.0,30.17,SSW,202,3.0,7.0,35,0.00,,,0.00,meteohub,2013-11-15 06:27:00,
2013-11-15 01:32:00,39.4,14.0,30.17,SSW,202,2.0,7.0,35,0.00,,,0.00,meteohub,2013-11-15 06:32:00,
2013-11-15 01:37:00,39.6,14.2,30.17,SSE,158,2.0,6.0,35,0.00,,,0.00,meteohub,2013-11-15 06:37:00,
2013-11-15 01:42:00,39.4,14.0,30.17,East,90,3.0,6.0,35,0.00,,,0.00,meteohub,2013-11-15 06:42:00,
2013-11-15 01:47:00,39.2,14.0,30.17,WNW,292,1.0,6.0,35,0.00,,,0.00,meteohub,2013-11-15 06:47:00,
2013-11-15 01:52:00,38.8,14.2,30.17,SSW,202,2.0,6.0,36,0.00,,,0.00,meteohub,2013-11-15 06:52:00,
2013-11-15 01:57:00,38.7,14.0,30.17,SW,225,1.0,6.0,36,0.00,,,0.00,meteohub,2013-11-15 06:57:00,
2013-11-15 02:02:00,38.5,14.0,30.20,SSE,158,1.0,3.0,36,0.00,,,0.00,meteohub,2013-11-15 07:02:00,
2013-11-15 02:07:00,38.5,14.0,30.20,NW,315,1.0,3.0,36,0.00,,,0.00,meteohub,2013-11-15 07:07:00,
2013-11-15 02:12:00,38.3,13.8,30.20,SW,225,1.0,3.0,36,0.00,,,0.00,meteohub,2013-11-15 07:12:00,
2013-11-15 02:17:00,38.3,13.8,30.20,SSW,202,0.0,3.0,36,0.00,,,0.00,meteohub,2013-11-15 07:17:00,
2013-11-15 02:22:00,37.9,13.5,30.20,SSW,202,2.0,4.0,36,0.00,,,0.00,meteohub,2013-11-15 07:22:00,
2013-11-15 02:27:00,37.9,13.5,30.20,NNE,22,2.0,4.0,36,0.00,,,0.00,meteohub,2013-11-15 07:27:00,
2013-11-15 02:32:00,37.9,13.5,30.20,SW,225,1.0,4.0,36,0.00,,,0.00,meteohub,2013-11-15 07:32:00,
2013-11-15 02:37:00,37.9,13.5,30.20,NNE,22,1.0,3.0,36,0.00,,,0.00,meteohub,2013-11-15 07:37:00,
2013-11-15 02:42:00,37.8,13.3,30.20,West,270,1.0,3.0,36,0.00,,,0.00,meteohub,2013-11-15 07:42:00,
2013-11-15 02:47:00,37.6,13.1,30.20,SW,225,1.0,3.0,36,0.00,,,0.00,meteohub,2013-11-15 07:47:00,
2013-11-15 02:52:00,37.6,13.1,30.20,South,180,2.0,3.0,36,0.00,,,0.00,meteohub,2013-11-15 07:52:00,
2013-11-15 02:57:00,37.4,12.9,30.20,SW,225,0.0,3.0,36,0.00,,,0.00,meteohub,2013-11-15 07:57:00,
2013-11-15 03:02:00,37.4,12.9,30.20,East,90,1.0,3.0,36,0.00,,,0.00,meteohub,2013-11-15 08:02:00,
2013-11-15 03:07:00,37.4,12.9,30.20,SE,135,1.0,3.0,36,0.00,,,0.00,meteohub,2013-11-15 08:07:00,
2013-11-15 03:12:00,37.2,12.7,30.20,ESE,112,1.0,4.0,36,0.00,,,0.00,meteohub,2013-11-15 08:12:00,
2013-11-15 03:17:00,37.2,13.5,30.20,SSW,202,1.0,4.0,37,0.00,,,0.00,meteohub,2013-11-15 08:17:00,
2013-11-15 03:22:00,37.0,13.3,30.20,NNE,22,1.0,3.0,37,0.00,,,0.00,meteohub,2013-11-15 08:22:00,
2013-11-15 03:27:00,37.2,13.5,30.20,NNW,338,2.0,3.0,37,0.00,,,0.00,meteohub,2013-11-15 08:27:00,
2013-11-15 03:32:00,37.0,13.3,30.20,North,0,1.0,3.0,37,0.00,,,0.00,meteohub,2013-11-15 08:32:00,
2013-11-15 03:37:00,37.0,13.3,30.20,SSE,158,2.0,2.0,37,0.00,,,0.00,meteohub,2013-11-15 08:37:00,
2013-11-15 03:42:00,37.0,13.3,30.20,SSW,202,1.0,3.0,37,0.00,,,0.00,meteohub,2013-11-15 08:42:00,
2013-11-15 03:47:00,37.0,13.3,30.20,NE,45,0.0,3.0,37,0.00,,,0.00,meteohub,2013-11-15 08:47:00,
2013-11-15 03:52:00,36.9,13.1,30.20,East,90,0.0,3.0,37,0.00,,,0.00,meteohub,2013-11-15 08:52:00,
2013-11-15 03:57:00,36.9,13.1,30.20,NNW,338,1.0,3.0,37,0.00,,,0.00,meteohub,2013-11-15 08:57:00,
2013-11-15 04:02:00,36.9,13.1,30.23,East,90,1.0,3.0,37,0.00,,,0.00,meteohub,2013-11-15 09:02:00,
2013-11-15 04:07:00,37.0,13.3,30.23,ESE,112,3.0,4.0,37,0.00,,,0.00,meteohub,2013-11-15 09:07:00,
2013-11-15 04:12:00,37.0,13.3,30.23,ENE,68,0.0,4.0,37,0.00,,,0.00,meteohub,2013-11-15 09:12:00,
2013-11-15 04:17:00,36.9,13.1,30.23,West,270,0.0,4.0,37,0.00,,,0.00,meteohub,2013-11-15 09:17:00,
2013-11-15 04:22:00,36.9,13.1,30.23,South,180,1.0,3.0,37,0.00,,,0.00,meteohub,2013-11-15 09:22:00,
2013-11-15 04:27:00,36.9,13.1,30.23,ENE,68,1.0,3.0,37,0.00,,,0.00,meteohub,2013-11-15 09:27:00,
2013-11-15 04:32:00,36.7,12.9,30.23,SSW,202,0.0,2.0,37,0.00,,,0.00,meteohub,2013-11-15 09:32:00,
2013-11-15 04:37:00,36.7,12.9,30.23,ENE,68,1.0,2.0,37,0.00,,,0.00,meteohub,2013-11-15 09:37:00,
2013-11-15 04:42:00,36.7,12.9,30.23,SW,225,0.0,2.0,37,0.00,,,0.00,meteohub,2013-11-15 09:42:00,
2013-11-15 04:47:00,36.9,13.1,30.20,ESE,112,0.0,3.0,37,0.00,,,0.00,meteohub,2013-11-15 09:47:00,
2013-11-15 04:52:00,36.9,13.1,30.20,ESE,112,1.0,3.0,37,0.00,,,0.00,meteohub,2013-11-15 09:52:00,
2013-11-15 04:57:00,36.9,13.1,30.20,WNW,292,1.0,3.0,37,0.00,,,0.00,meteohub,2013-11-15 09:57:00,
2013-11-15 05:02:00,36.9,13.1,30.20,South,180,2.0,3.0,37,0.00,,,0.00,meteohub,2013-11-15 10:02:00,
2013-11-15 05:07:00,36.9,13.1,30.20,East,90,2.0,3.0,37,0.00,,,0.00,meteohub,2013-11-15 10:07:00,
2013-11-15 05:12:00,36.9,13.1,30.20,ESE,112,0.0,3.0,37,0.00,,,0.00,meteohub,2013-11-15 10:12:00,
2013-11-15 05:17:00,37.0,12.6,30.20,South,180,2.0,3.0,36,0.00,,,0.00,meteohub,2013-11-15 10:17:00,
2013-11-15 05:22:00,36.9,12.6,30.20,SSW,202,1.0,3.0,36,0.00,,,0.00,meteohub,2013-11-15 10:22:00,
2013-11-15 05:27:00,36.9,13.1,30.20,SE,135,2.0,2.0,37,0.00,,,0.00,meteohub,2013-11-15 10:27:00,
2013-11-15 05:32:00,36.9,12.6,30.23,ESE,112,2.0,2.0,36,0.00,,,0.00,meteohub,2013-11-15 10:32:00,
2013-11-15 05:37:00,36.9,12.6,30.23,ENE,68,0.0,3.0,36,0.00,,,0.00,meteohub,2013-11-15 10:37:00,
2013-11-15 05:42:00,36.9,12.6,30.23,WNW,292,1.0,3.0,36,0.00,,,0.00,meteohub,2013-11-15 10:42:00,
2013-11-15 05:47:00,36.9,12.6,30.23,East,90,1.0,3.0,36,0.00,,,0.00,meteohub,2013-11-15 10:47:00,
2013-11-15 05:57:00,36.9,12.6,30.23,WNW,292,1.0,3.0,36,0.00,,,0.00,meteohub,2013-11-15 10:57:00,
2013-11-15 06:02:00,36.9,12.6,30.23,NNW,338,0.0,3.0,36,0.00,,,0.00,meteohub,2013-11-15 11:02:00,
2013-11-15 06:07:00,36.9,12.6,30.23,SSW,202,2.0,3.0,36,0.00,,,0.00,meteohub,2013-11-15 11:07:00,
2013-11-15 06:12:00,36.5,12.2,30.23,SSE,158,1.0,3.0,36,0.00,,,0.00,meteohub,2013-11-15 11:12:00,
2013-11-15 06:17:00,36.5,12.2,30.23,South,180,2.0,3.0,36,0.00,,,0.00,meteohub,2013-11-15 11:17:00,
2013-11-15 06:22:00,36.3,12.0,30.23,East,90,0.0,3.0,36,0.00,,,0.00,meteohub,2013-11-15 11:22:00,
2013-11-15 06:27:00,36.1,11.8,30.23,SSE,158,1.0,2.0,36,0.00,,,0.00,meteohub,2013-11-15 11:27:00,
2013-11-15 06:32:00,36.1,11.8,30.23,SE,135,1.0,2.0,36,0.00,,,0.00,meteohub,2013-11-15 11:32:00,
2013-11-15 06:37:00,36.3,12.0,30.23,SW,225,2.0,3.0,36,0.00,,,0.00,meteohub,2013-11-15 11:37:00,
2013-11-15 06:42:00,36.5,12.2,30.23,SW,225,6.0,6.0,36,0.00,,,0.00,meteohub,2013-11-15 11:42:00,
2013-11-15 06:47:00,36.7,12.4,30.23,SW,225,4.0,6.0,36,0.00,,,0.00,meteohub,2013-11-15 11:47:00,
2013-11-15 06:52:00,36.9,12.6,30.23,ENE,68,2.0,6.0,36,0.00,,,0.00,meteohub,2013-11-15 11:52:00,
2013-11-15 06:57:00,37.0,12.6,30.23,SW,225,4.0,6.0,36,0.00,,,0.00,meteohub,2013-11-15 11:57:00,
2013-11-15 07:02:00,37.0,12.6,30.23,SSW,202,1.0,5.0,36,0.00,,,0.00,meteohub,2013-11-15 12:02:00,
2013-11-15 07:07:00,37.0,12.6,30.23,NW,315,1.0,5.0,36,0.00,,,0.00,meteohub,2013-11-15 12:07:00,
2013-11-15 07:12:00,37.0,12.6,30.23,SSE,158,1.0,4.0,36,0.00,,,0.00,meteohub,2013-11-15 12:12:00,
2013-11-15 07:17:00,37.2,12.7,30.23,WSW,248,1.0,4.0,36,0.00,,,0.00,meteohub,2013-11-15 12:17:00,
2013-11-15 07:22:00,37.4,12.4,30.23,WSW,248,1.0,4.0,35,0.00,,,0.00,meteohub,2013-11-15 12:22:00,
2013-11-15 07:27:00,37.4,12.9,30.23,South,180,3.0,5.0,36,0.00,,,0.00,meteohub,2013-11-15 12:27:00,
2013-11-15 07:32:00,37.6,13.1,30.23,ENE,68,2.0,5.0,36,0.00,,,0.00,meteohub,2013-11-15 12:32:00,
2013-11-15 07:37:00,37.6,13.1,30.23,SSW,202,3.0,5.0,36,0.00,,,0.00,meteohub,2013-11-15 12:37:00,
2013-11-15 07:42:00,37.9,13.5,30.23,ESE,112,3.0,3.0,36,0.00,,,0.00,meteohub,2013-11-15 12:42:00,
2013-11-15 07:47:00,38.1,13.6,30.23,South,180,4.0,4.0,36,0.00,,,0.00,meteohub,2013-11-15 12:47:00,
2013-11-15 07:52:00,38.1,13.6,30.23,South,180,4.0,4.0,36,0.00,,,0.00,meteohub,2013-11-15 12:52:00,
2013-11-15 07:57:00,38.5,14.0,30.23,WSW,248,5.0,5.0,36,0.00,,,0.00,meteohub,2013-11-15 12:57:00,
2013-11-15 08:02:00,38.7,14.0,30.23,SSW,202,3.0,6.0,36,0.00,,,0.00,meteohub,2013-11-15 13:02:00,
2013-11-15 08:07:00,39.2,14.0,30.23,South,180,6.0,6.0,35,0.00,,,0.00,meteohub,2013-11-15 13:07:00,
2013-11-15 08:12:00,39.4,14.0,30.23,WSW,248,4.0,6.0,35,0.00,,,0.00,meteohub,2013-11-15 13:12:00,
2013-11-15 08:17:00,39.9,14.5,30.26,SSW,202,3.0,10.0,35,0.00,,,0.00,meteohub,2013-11-15 13:17:00,
2013-11-15 08:22:00,40.5,15.1,30.26,SSW,202,6.0,10.0,35,0.00,,,0.00,meteohub,2013-11-15 13:22:00,
2013-11-15 08:27:00,40.8,15.4,30.26,South,180,4.0,10.0,35,0.00,,,0.00,meteohub,2013-11-15 13:27:00,
2013-11-15 08:32:00,41.2,15.6,30.23,SE,135,2.0,7.0,35,0.00,,,0.00,meteohub,2013-11-15 13:32:00,
2013-11-15 08:37:00,41.5,16.0,30.23,WNW,292,4.0,7.0,35,0.00,,,0.00,meteohub,2013-11-15 13:37:00,
2013-11-15 08:42:00,41.9,16.3,30.23,ENE,68,5.0,8.0,35,0.00,,,0.00,meteohub,2013-11-15 13:42:00,
2013-11-15 08:47:00,42.3,16.7,30.23,West,270,3.0,8.0,35,0.00,,,0.00,meteohub,2013-11-15 13:47:00,
2013-11-15 08:52:00,43.2,17.4,30.23,South,180,2.0,8.0,35,0.00,,,0.00,meteohub,2013-11-15 13:52:00,
2013-11-15 08:57:00,44.1,18.1,30.23,West,270,3.0,8.0,35,0.00,,,0.00,meteohub,2013-11-15 13:57:00,
2013-11-15 09:02:00,44.8,18.1,30.23,SW,225,6.0,6.0,34,0.00,,,0.00,meteohub,2013-11-15 14:02:00,
2013-11-15 09:07:00,45.5,18.9,30.23,SW,225,1.0,6.0,34,0.00,,,0.00,meteohub,2013-11-15 14:07:00,
2013-11-15 09:12:00,46.6,19.8,30.23,SW,225,1.0,7.0,34,0.00,,,0.00,meteohub,2013-11-15 14:12:00,
2013-11-15 09:17:00,47.7,19.9,30.23,SSW,202,1.0,8.0,33,0.00,,,0.00,meteohub,2013-11-15 14:17:00,
2013-11-15 09:22:00,48.9,20.5,30.23,SSW,202,1.0,8.0,32,0.00,,,0.00,meteohub,2013-11-15 14:22:00,
2013-11-15 09:27:00,50.2,20.8,30.23,SW,225,6.0,8.0,31,0.00,,,0.00,meteohub,2013-11-15 14:27:00,
2013-11-15 09:32:00,51.6,22.1,30.23,WSW,248,2.0,8.0,31,0.00,,,0.00,meteohub,2013-11-15 14:32:00,
2013-11-15 09:37:00,52.0,20.8,30.23,South,180,4.0,6.0,29,0.00,,,0.00,meteohub,2013-11-15 14:37:00,
2013-11-15 09:42:00,53.1,21.7,30.23,WSW,248,3.0,7.0,29,0.00,,,0.00,meteohub,2013-11-15 14:42:00,
2013-11-15 09:47:00,53.8,21.6,30.23,WNW,292,2.0,7.0,28,0.00,,,0.00,meteohub,2013-11-15 14:47:00,
2013-11-15 09:52:00,54.9,22.5,30.23,WNW,292,2.0,7.0,28,0.00,,,0.00,meteohub,2013-11-15 14:52:00,
2013-11-15 09:57:00,55.8,23.2,30.23,WSW,248,4.0,7.0,28,0.00,,,0.00,meteohub,2013-11-15 14:57:00,
2013-11-15 10:02:00,56.7,23.9,30.23,WSW,248,4.0,8.0,28,0.00,,,0.00,meteohub,2013-11-15 15:02:00,
2013-11-15 10:07:00,57.9,24.3,30.23,South,180,4.0,8.0,27,0.00,,,0.00,meteohub,2013-11-15 15:07:00,
2013-11-15 10:12:00,57.6,23.9,30.23,SSW,202,3.0,8.0,27,0.00,,,0.00,meteohub,2013-11-15 15:12:00,
2013-11-15 10:17:00,56.7,23.2,30.23,SSW,202,4.0,7.0,27,0.00,,,0.00,meteohub,2013-11-15 15:17:00,
2013-11-15 10:22:00,56.7,23.2,30.23,SSE,158,3.0,7.0,27,0.00,,,0.00,meteohub,2013-11-15 15:22:00,
2013-11-15 10:27:00,56.1,21.7,30.23,ESE,112,2.0,7.0,26,0.00,,,0.00,meteohub,2013-11-15 15:27:00,
2013-11-15 10:32:00,56.1,21.7,30.23,SW,225,3.0,6.0,26,0.00,,,0.00,meteohub,2013-11-15 15:32:00,
2013-11-15 10:37:00,55.8,21.4,30.23,SW,225,6.0,7.0,26,0.00,,,0.00,meteohub,2013-11-15 15:37:00,
2013-11-15 10:42:00,55.6,21.4,30.23,SW,225,5.0,8.0,26,0.00,,,0.00,meteohub,2013-11-15 15:42:00,
2013-11-15 10:47:00,55.9,21.6,30.23,SSW,202,6.0,8.0,26,0.00,,,0.00,meteohub,2013-11-15 15:47:00,
2013-11-15 10:52:00,56.1,21.7,30.23,SSW,202,4.0,9.0,26,0.00,,,0.00,meteohub,2013-11-15 15:52:00,
2013-11-15 10:57:00,56.5,22.1,30.23,SSW,202,6.0,9.0,26,0.00,,,0.00,meteohub,2013-11-15 15:57:00,
2013-11-15 11:02:00,57.4,22.8,30.20,SSW,202,4.0,10.0,26,0.00,,,0.00,meteohub,2013-11-15 16:02:00,
2013-11-15 11:07:00,58.3,22.6,30.20,SW,225,2.0,10.0,25,0.00,,,0.00,meteohub,2013-11-15 16:07:00,
2013-11-15 11:12:00,58.3,22.6,30.20,WNW,292,2.0,10.0,25,0.00,,,0.00,meteohub,2013-11-15 16:12:00,
2013-11-15 11:17:00,59.2,23.4,30.26,NNW,338,3.0,8.0,25,0.00,,,0.00,meteohub,2013-11-15 16:17:00,
2013-11-15 11:22:00,61.0,25.0,30.26,WNW,292,12.0,12.0,25,0.00,,,0.00,meteohub,2013-11-15 16:22:00,
2013-11-15 11:27:00,60.6,24.6,30.26,WSW,248,8.0,12.0,25,0.00,,,0.00,meteohub,2013-11-15 16:27:00,
2013-11-15 11:32:00,60.1,23.2,30.23,WSW,248,3.0,12.0,24,0.00,,,0.00,meteohub,2013-11-15 16:32:00,
2013-11-15 11:37:00,61.0,25.0,30.23,SW,225,2.0,12.0,25,0.00,,,0.00,meteohub,2013-11-15 16:37:00,
2013-11-15 11:42:00,61.3,24.3,30.23,SW,225,3.0,9.0,24,0.00,,,0.00,meteohub,2013-11-15 16:42:00,
2013-11-15 11:47:00,60.8,23.9,30.23,SE,135,6.0,8.0,24,0.00,,,0.00,meteohub,2013-11-15 16:47:00,
2013-11-15 11:52:00,60.6,23.7,30.23,SW,225,5.0,13.0,24,0.00,,,0.00,meteohub,2013-11-15 16:52:00,
2013-11-15 11:57:00,60.1,23.2,30.23,SSW,202,4.0,13.0,24,0.00,,,0.00,meteohub,2013-11-15 16:57:00,
2013-11-15 12:02:00,60.4,23.5,30.20,SW,225,2.0,13.0,24,0.00,,,0.00,meteohub,2013-11-15 17:02:00,
2013-11-15 12:07:00,60.6,23.7,30.20,SSW,202,3.0,9.0,24,0.00,,,0.00,meteohub,2013-11-15 17:07:00,
2013-11-15 12:12:00,60.8,20.7,30.20,WSW,248,3.0,8.0,21,0.00,,,0.00,meteohub,2013-11-15 17:12:00,
2013-11-15 12:17:00,61.0,20.8,30.20,WNW,292,3.0,9.0,21,0.00,,,0.00,meteohub,2013-11-15 17:17:00,
2013-11-15 12:22:00,61.3,24.3,30.20,West,270,8.0,10.0,24,0.00,,,0.00,meteohub,2013-11-15 17:22:00,
2013-11-15 12:27:00,61.7,24.6,30.20,SSE,158,3.0,10.0,24,0.00,,,0.00,meteohub,2013-11-15 17:27:00,
2013-11-15 12:32:00,62.1,25.0,30.20,South,180,11.0,11.0,24,0.00,,,0.00,meteohub,2013-11-15 17:32:00,
2013-11-15 12:37:00,61.5,21.2,30.20,SE,135,2.0,11.0,21,0.00,,,0.00,meteohub,2013-11-15 17:37:00,
2013-11-15 12:42:00,61.3,21.2,30.20,ENE,68,2.0,11.0,21,0.00,,,0.00,meteohub,2013-11-15 17:42:00,
2013-11-15 12:47:00,61.3,21.2,30.20,SSW,202,6.0,11.0,21,0.00,,,0.00,meteohub,2013-11-15 17:47:00,
2013-11-15 12:52:00,61.3,21.2,30.20,NNW,338,3.0,13.0,21,0.00,,,0.00,meteohub,2013-11-15 17:52:00,
2013-11-15 12:57:00,60.8,20.7,30.20,SW,225,4.0,13.0,21,0.00,,,0.00,meteohub,2013-11-15 17:57:00,
2013-11-15 13:02:00,60.6,21.6,30.20,SW,225,5.0,13.0,22,0.00,,,0.00,meteohub,2013-11-15 18:02:00,
2013-11-15 13:07:00,60.3,21.4,30.20,South,180,4.0,11.0,22,0.00,,,0.00,meteohub,2013-11-15 18:07:00,
2013-11-15 13:12:00,60.6,21.6,30.20,SW,225,6.0,10.0,22,0.00,,,0.00,meteohub,2013-11-15 18:12:00,
2013-11-15 13:17:00,61.2,24.1,30.17,SW,225,5.0,10.0,24,0.00,,,0.00,meteohub,2013-11-15 18:17:00,
2013-11-15 13:22:00,60.8,20.7,30.17,WSW,248,6.0,10.0,21,0.00,,,0.00,meteohub,2013-11-15 18:22:00,
2013-11-15 13:27:00,60.8,20.7,30.17,ESE,112,3.0,11.0,21,0.00,,,0.00,meteohub,2013-11-15 18:27:00,
2013-11-15 13:32:00,60.8,20.7,30.17,WSW,248,6.0,11.0,21,0.00,,,0.00,meteohub,2013-11-15 18:32:00,
2013-11-15 13:37:00,60.8,20.7,30.17,West,270,8.0,13.0,21,0.00,,,0.00,meteohub,2013-11-15 18:37:00,
2013-11-15 13:42:00,60.8,20.7,30.17,SW,225,11.0,13.0,21,0.00,,,0.00,meteohub,2013-11-15 18:42:00,
2013-11-15 13:47:00,60.6,21.6,30.17,WSW,248,4.0,13.0,22,0.00,,,0.00,meteohub,2013-11-15 18:47:00,
2013-11-15 13:52:00,60.6,21.6,30.17,NNW,338,7.0,13.0,22,0.00,,,0.00,meteohub,2013-11-15 18:52:00,
2013-11-15 13:57:00,60.4,21.6,30.17,South,180,6.0,13.0,22,0.00,,,0.00,meteohub,2013-11-15 18:57:00,
2013-11-15 14:02:00,60.4,21.6,30.17,SW,225,3.0,11.0,22,0.00,,,0.00,meteohub,2013-11-15 19:02:00,
2013-11-15 14:07:00,60.3,23.4,30.17,NW,315,2.0,11.0,24,0.00,,,0.00,meteohub,2013-11-15 19:07:00,
2013-11-15 14:12:00,60.1,23.2,30.17,SW,225,4.0,11.0,24,0.00,,,0.00,meteohub,2013-11-15 19:12:00,
2013-11-15 14:17:00,60.1,21.2,30.17,SSW,202,6.0,11.0,22,0.00,,,0.00,meteohub,2013-11-15 19:17:00,
2013-11-15 14:22:00,60.1,21.2,30.17,SSW,202,6.0,11.0,22,0.00,,,0.00,meteohub,2013-11-15 19:22:00,
2013-11-15 14:27:00,60.3,21.4,30.17,SSW,202,7.0,10.0,22,0.00,,,0.00,meteohub,2013-11-15 19:27:00,
2013-11-15 14:32:00,60.3,23.4,30.20,West,270,3.0,9.0,24,0.00,,,0.00,meteohub,2013-11-15 19:32:00,
2013-11-15 14:37:00,60.3,23.4,30.20,SSE,158,6.0,8.0,24,0.00,,,0.00,meteohub,2013-11-15 19:37:00,
2013-11-15 14:42:00,60.1,23.2,30.20,WSW,248,2.0,8.0,24,0.00,,,0.00,meteohub,2013-11-15 19:42:00,
2013-11-15 14:47:00,60.1,23.2,30.17,SSE,158,3.0,8.0,24,0.00,,,0.00,meteohub,2013-11-15 19:47:00,
2013-11-15 14:52:00,59.9,23.0,30.17,WSW,248,6.0,8.0,24,0.00,,,0.00,meteohub,2013-11-15 19:52:00,
2013-11-15 14:57:00,59.9,23.0,30.17,West,270,4.0,10.0,24,0.00,,,0.00,meteohub,2013-11-15 19:57:00,
2013-11-15 15:02:00,59.9,23.0,30.17,SW,225,4.0,10.0,24,0.00,,,0.00,meteohub,2013-11-15 20:02:00,
2013-11-15 15:07:00,59.9,23.0,30.17,WSW,248,4.0,9.0,24,0.00,,,0.00,meteohub,2013-11-15 20:07:00,
2013-11-15 15:12:00,59.7,23.0,30.17,WSW,248,6.0,6.0,24,0.00,,,0.00,meteohub,2013-11-15 20:12:00,
2013-11-15 15:17:00,59.7,23.0,30.17,South,180,3.0,6.0,24,0.00,,,0.00,meteohub,2013-11-15 20:17:00,
2013-11-15 15:22:00,59.5,22.8,30.17,WNW,292,4.0,7.0,24,0.00,,,0.00,meteohub,2013-11-15 20:22:00,
2013-11-15 15:27:00,59.4,22.6,30.17,WSW,248,5.0,7.0,24,0.00,,,0.00,meteohub,2013-11-15 20:27:00,
2013-11-15 15:32:00,59.4,22.6,30.17,SSW,202,6.0,8.0,24,0.00,,,0.00,meteohub,2013-11-15 20:32:00,
2013-11-15 15:37:00,59.2,22.5,30.17,South,180,4.0,8.0,24,0.00,,,0.00,meteohub,2013-11-15 20:37:00,
2013-11-15 15:42:00,59.0,22.3,30.17,SSW,202,3.0,8.0,24,0.00,,,0.00,meteohub,2013-11-15 20:42:00,
2013-11-15 15:47:00,58.8,23.2,30.17,South,180,8.0,9.0,25,0.00,,,0.00,meteohub,2013-11-15 20:47:00,
2013-11-15 15:52:00,58.5,22.8,30.17,SW,225,4.0,11.0,25,0.00,,,0.00,meteohub,2013-11-15 20:52:00,
2013-11-15 15:57:00,58.1,22.5,30.17,West,270,3.0,11.0,25,0.00,,,0.00,meteohub,2013-11-15 20:57:00,
2013-11-15 16:02:00,57.9,22.5,30.17,South,180,3.0,11.0,25,0.00,,,0.00,meteohub,2013-11-15 21:02:00,
2013-11-15 16:07:00,57.7,22.3,30.17,NW,315,2.0,9.0,25,0.00,,,0.00,meteohub,2013-11-15 21:07:00,
2013-11-15 16:12:00,57.6,22.1,30.17,SW,225,4.0,9.0,25,0.00,,,0.00,meteohub,2013-11-15 21:12:00,
2013-11-15 16:17:00,57.4,21.9,30.14,SSW,202,3.0,5.0,25,0.00,,,0.00,meteohub,2013-11-15 21:17:00,
2013-11-15 16:22:00,57.2,22.6,30.14,WSW,248,2.0,6.0,26,0.00,,,0.00,meteohub,2013-11-15 21:22:00,
2013-11-15 16:27:00,56.8,22.5,30.14,West,270,4.0,7.0,26,0.00,,,0.00,meteohub,2013-11-15 21:27:00,
2013-11-15 16:32:00,56.8,22.5,30.17,ESE,112,1.0,7.0,26,0.00,,,0.00,meteohub,2013-11-15 21:32:00,
2013-11-15 16:37:00,56.5,22.1,30.17,WNW,292,3.0,6.0,26,0.00,,,0.00,meteohub,2013-11-15 21:37:00,
2013-11-15 16:42:00,56.5,22.1,30.17,SSW,202,3.0,6.0,26,0.00,,,0.00,meteohub,2013-11-15 21:42:00,
2013-11-15 16:47:00,56.3,21.9,30.17,WSW,248,2.0,5.0,26,0.00,,,0.00,meteohub,2013-11-15 21:47:00,
2013-11-15 16:52:00,55.9,22.5,30.17,SSW,202,2.0,5.0,27,0.00,,,0.00,meteohub,2013-11-15 21:52:00,
2013-11-15 16:57:00,55.6,22.3,30.17,WSW,248,4.0,9.0,27,0.00,,,0.00,meteohub,2013-11-15 21:57:00,
2013-11-15 17:02:00,55.4,22.1,30.17,SW,225,2.0,9.0,27,0.00,,,0.00,meteohub,2013-11-15 22:02:00,
2013-11-15 17:07:00,55.2,21.9,30.17,SSE,158,2.0,9.0,27,0.00,,,0.00,meteohub,2013-11-15 22:07:00,
2013-11-15 17:12:00,54.9,21.6,30.17,SW,225,4.0,6.0,27,0.00,,,0.00,meteohub,2013-11-15 22:12:00,
2013-11-15 17:17:00,54.7,21.4,30.17,WNW,292,4.0,6.0,27,0.00,,,0.00,meteohub,2013-11-15 22:17:00,
2013-11-15 17:22:00,54.7,21.4,30.17,SSW,202,3.0,6.0,27,0.00,,,0.00,meteohub,2013-11-15 22:22:00,
2013-11-15 17:27:00,54.5,21.2,30.17,South,180,3.0,6.0,27,0.00,,,0.00,meteohub,2013-11-15 22:27:00,
2013-11-15 17:32:00,54.1,21.0,30.20,South,180,5.0,6.0,27,0.00,,,0.00,meteohub,2013-11-15 22:32:00,
2013-11-15 17:37:00,54.0,20.8,30.20,SSW,202,3.0,8.0,27,0.00,,,0.00,meteohub,2013-11-15 22:37:00,
2013-11-15 17:42:00,53.6,20.5,30.20,SW,225,6.0,8.0,27,0.00,,,0.00,meteohub,2013-11-15 22:42:00,
2013-11-15 17:47:00,53.4,20.3,30.20,SE,135,5.0,8.0,27,0.00,,,0.00,meteohub,2013-11-15 22:47:00,
2013-11-15 17:52:00,53.2,20.1,30.20,WSW,248,1.0,8.0,27,0.00,,,0.00,meteohub,2013-11-15 22:52:00,
2013-11-15 17:57:00,53.1,20.1,30.20,SSE,158,4.0,9.0,27,0.00,,,0.00,meteohub,2013-11-15 22:57:00,
2013-11-15 18:02:00,52.9,19.9,30.20,SSW,202,3.0,9.0,27,0.00,,,0.00,meteohub,2013-11-15 23:02:00,
2013-11-15 18:07:00,52.5,19.6,30.20,SE,135,0.0,9.0,27,0.00,,,0.00,meteohub,2013-11-15 23:07:00,
2013-11-15 18:12:00,52.3,19.4,30.20,ESE,112,1.0,8.0,27,0.00,,,0.00,meteohub,2013-11-15 23:12:00,
2013-11-15 18:17:00,51.8,18.9,30.20,SW,225,3.0,6.0,27,0.00,,,0.00,meteohub,2013-11-15 23:17:00,
2013-11-15 18:22:00,51.6,19.6,30.20,West,270,5.0,6.0,28,0.00,,,0.00,meteohub,2013-11-15 23:22:00,
2013-11-15 18:27:00,51.3,19.4,30.20,SW,225,2.0,6.0,28,0.00,,,0.00,meteohub,2013-11-15 23:27:00,
2013-11-15 18:32:00,50.9,19.0,30.23,SW,225,4.0,6.0,28,0.00,,,0.00,meteohub,2013-11-15 23:32:00,
2013-11-15 18:37:00,50.7,18.9,30.23,SW,225,2.0,6.0,28,0.00,,,0.00,meteohub,2013-11-15 23:37:00,
2013-11-15 18:42:00,50.4,18.5,30.23,South,180,2.0,4.0,28,0.00,,,0.00,meteohub,2013-11-15 23:42:00,
2013-11-15 18:47:00,50.2,19.2,30.23,SSE,158,2.0,4.0,29,0.00,,,0.00,meteohub,2013-11-15 23:47:00,
2013-11-15 18:52:00,49.8,19.8,30.23,South,180,1.0,4.0,30,0.00,,,0.00,meteohub,2013-11-15 23:52:00,
2013-11-15 18:57:00,49.6,19.6,30.23,SSE,158,2.0,4.0,30,0.00,,,0.00,meteohub,2013-11-15 23:57:00,
2013-11-15 19:02:00,49.3,19.2,30.23,SSW,202,2.0,3.0,30,0.00,,,0.00,meteohub,2013-11-16 00:02:00,
2013-11-15 19:07:00,48.9,19.8,30.23,SW,225,2.0,4.0,31,0.00,,,0.00,meteohub,2013-11-16 00:07:00,
2013-11-15 19:12:00,48.6,19.4,30.23,SSW,202,2.0,4.0,31,0.00,,,0.00,meteohub,2013-11-16 00:12:00,
2013-11-15 19:17:00,48.6,20.8,30.20,North,0,3.0,4.0,33,0.00,,,0.00,meteohub,2013-11-16 00:17:00,
2013-11-15 19:22:00,48.2,20.5,30.20,South,180,4.0,4.0,33,0.00,,,0.00,meteohub,2013-11-16 00:22:00,
2013-11-15 19:27:00,48.2,21.9,30.20,SSW,202,3.0,4.0,35,0.00,,,0.00,meteohub,2013-11-16 00:27:00,
2013-11-15 19:32:00,47.7,22.1,30.23,SW,225,3.0,5.0,36,0.00,,,0.00,meteohub,2013-11-16 00:32:00,
2013-11-15 19:37:00,47.5,22.6,30.23,South,180,2.0,5.0,37,0.00,,,0.00,meteohub,2013-11-16 00:37:00,
2013-11-15 19:42:00,47.5,23.2,30.23,South,180,2.0,5.0,38,0.00,,,0.00,meteohub,2013-11-16 00:42:00,
2013-11-15 19:47:00,47.3,23.0,30.23,SSW,202,2.0,3.0,38,0.00,,,0.00,meteohub,2013-11-16 00:47:00,
2013-11-15 19:52:00,47.3,23.0,30.23,SSW,202,3.0,4.0,38,0.00,,,0.00,meteohub,2013-11-16 00:52:00,
2013-11-15 19:57:00,47.3,23.0,30.23,SSW,202,3.0,4.0,38,0.00,,,0.00,meteohub,2013-11-16 00:57:00,
2013-11-15 20:02:00,46.9,23.4,30.23,SW,225,2.0,5.0,39,0.00,,,0.00,meteohub,2013-11-16 01:02:00,
2013-11-15 20:07:00,46.6,23.5,30.23,SW,225,4.0,5.0,40,0.00,,,0.00,meteohub,2013-11-16 01:07:00,
2013-11-15 20:12:00,46.6,23.5,30.23,SSW,202,3.0,5.0,40,0.00,,,0.00,meteohub,2013-11-16 01:12:00,
2013-11-15 20:17:00,46.6,24.3,30.23,SSW,202,3.0,5.0,41,0.00,,,0.00,meteohub,2013-11-16 01:17:00,
2013-11-15 20:22:00,46.8,24.4,30.23,SW,225,4.0,5.0,41,0.00,,,0.00,meteohub,2013-11-16 01:22:00,
2013-11-15 20:27:00,46.8,25.0,30.23,SSW,202,1.0,5.0,42,0.00,,,0.00,meteohub,2013-11-16 01:27:00,
2013-11-15 20:32:00,46.8,25.5,30.23,WNW,292,3.0,5.0,43,0.00,,,0.00,meteohub,2013-11-16 01:32:00,
2013-11-15 20:37:00,46.6,25.3,30.23,East,90,1.0,6.0,43,0.00,,,0.00,meteohub,2013-11-16 01:37:00,
2013-11-15 20:42:00,46.6,25.3,30.23,ENE,68,1.0,6.0,43,0.00,,,0.00,meteohub,2013-11-16 01:42:00,
2013-11-15 20:47:00,46.4,25.2,30.23,WNW,292,2.0,6.0,43,0.00,,,0.00,meteohub,2013-11-16 01:47:00,
2013-11-15 20:52:00,46.2,25.5,30.23,SE,135,2.0,3.0,44,0.00,,,0.00,meteohub,2013-11-16 01:52:00,
2013-11-15 20:57:00,46.0,25.9,30.23,South,180,3.0,3.0,45,0.00,,,0.00,meteohub,2013-11-16 01:57:00,
2013-11-15 21:02:00,46.0,25.9,30.23,SSE,158,1.0,3.0,45,0.00,,,0.00,meteohub,2013-11-16 02:02:00,
2013-11-15 21:07:00,46.0,25.9,30.23,NNE,22,2.0,3.0,45,0.00,,,0.00,meteohub,2013-11-16 02:07:00,
2013-11-15 21:12:00,45.9,26.2,30.23,South,180,3.0,3.0,46,0.00,,,0.00,meteohub,2013-11-16 02:12:00,
2013-11-15 21:17:00,45.9,25.7,30.23,SW,225,2.0,3.0,45,0.00,,,0.00,meteohub,2013-11-16 02:17:00,
2013-11-15 21:22:00,45.9,26.2,30.23,SW,225,3.0,4.0,46,0.00,,,0.00,meteohub,2013-11-16 02:22:00,
2013-11-15 21:27:00,46.0,27.0,30.23,South,180,2.0,4.0,47,0.00,,,0.00,meteohub,2013-11-16 02:27:00,
2013-11-15 21:32:00,46.0,26.4,30.23,ENE,68,1.0,4.0,46,0.00,,,0.00,meteohub,2013-11-16 02:32:00,
2013-11-15 21:37:00,46.2,26.6,30.23,SSW,202,3.0,4.0,46,0.00,,,0.00,meteohub,2013-11-16 02:37:00,
2013-11-15 21:42:00,46.2,26.6,30.23,WNW,292,2.0,4.0,46,0.00,,,0.00,meteohub,2013-11-16 02:42:00,
2013-11-15 21:47:00,46.0,26.4,30.23,South,180,0.0,4.0,46,0.00,,,0.00,meteohub,2013-11-16 02:47:00,
2013-11-15 21:52:00,46.0,26.4,30.23,SSE,158,1.0,4.0,46,0.00,,,0.00,meteohub,2013-11-16 02:52:00,
2013-11-15 21:57:00,45.9,26.2,30.23,South,180,1.0,4.0,46,0.00,,,0.00,meteohub,2013-11-16 02:57:00,
2013-11-15 22:02:00,45.9,26.2,30.23,NNE,22,1.0,4.0,46,0.00,,,0.00,meteohub,2013-11-16 03:02:00,
2013-11-15 22:07:00,45.7,26.1,30.23,SW,225,0.0,4.0,46,0.00,,,0.00,meteohub,2013-11-16 03:07:00,
2013-11-15 22:12:00,45.7,26.1,30.23,South,180,3.0,3.0,46,0.00,,,0.00,meteohub,2013-11-16 03:12:00,
2013-11-15 22:17:00,45.5,25.9,30.23,NW,315,1.0,3.0,46,0.00,,,0.00,meteohub,2013-11-16 03:17:00,
2013-11-15 22:22:00,45.5,25.9,30.23,South,180,1.0,3.0,46,0.00,,,0.00,meteohub,2013-11-16 03:22:00,
2013-11-15 22:27:00,45.5,25.9,30.23,ENE,68,2.0,3.0,46,0.00,,,0.00,meteohub,2013-11-16 03:27:00,
2013-11-15 22:32:00,45.5,25.9,30.23,SW,225,3.0,3.0,46,0.00,,,0.00,meteohub,2013-11-16 03:32:00,
2013-11-15 22:37:00,45.5,25.9,30.23,South,180,2.0,4.0,46,0.00,,,0.00,meteohub,2013-11-16 03:37:00,
2013-11-15 22:42:00,45.5,25.9,30.23,WSW,248,1.0,4.0,46,0.00,,,0.00,meteohub,2013-11-16 03:42:00,
2013-11-15 22:47:00,45.3,25.9,30.23,SSE,158,2.0,4.0,46,0.00,,,0.00,meteohub,2013-11-16 03:47:00,
2013-11-15 22:52:00,45.1,25.7,30.23,ESE,112,2.0,4.0,46,0.00,,,0.00,meteohub,2013-11-16 03:52:00,
2013-11-15 22:57:00,45.1,25.7,30.23,South,180,1.0,4.0,46,0.00,,,0.00,meteohub,2013-11-16 03:57:00,
2013-11-15 23:02:00,45.0,25.5,30.23,SSW,202,2.0,3.0,46,0.00,,,0.00,meteohub,2013-11-16 04:02:00,
2013-11-15 23:07:00,44.6,25.2,30.23,SSW,202,0.0,3.0,46,0.00,,,0.00,meteohub,2013-11-16 04:07:00,
2013-11-15 23:12:00,44.4,25.5,30.23,SW,225,2.0,3.0,47,0.00,,,0.00,meteohub,2013-11-16 04:12:00,
2013-11-15 23:17:00,44.1,25.2,30.26,WSW,248,0.0,3.0,47,0.00,,,0.00,meteohub,2013-11-16 04:17:00,
2013-11-15 23:22:00,43.9,25.0,30.26,SSE,158,1.0,3.0,47,0.00,,,0.00,meteohub,2013-11-16 04:22:00,
2013-11-15 23:27:00,43.9,25.0,30.26,NNE,22,1.0,3.0,47,0.00,,,0.00,meteohub,2013-11-16 04:27:00,
2013-11-15 23:32:00,43.7,24.8,30.23,SSW,202,0.0,3.0,47,0.00,,,0.00,meteohub,2013-11-16 04:32:00,
2013-11-15 23:37:00,43.7,25.3,30.23,SW,225,2.0,2.0,48,0.00,,,0.00,meteohub,2013-11-16 04:37:00,
2013-11-15 23:42:00,43.7,24.8,30.23,NW,315,2.0,2.0,47,0.00,,,0.00,meteohub,2013-11-16 04:42:00,
2013-11-15 23:47:00,44.1,25.2,30.20,SSE,158,1.0,3.0,47,0.00,,,0.00,meteohub,2013-11-16 04:47:00,
2013-11-15 23:52:00,44.2,24.8,30.20,SE,135,1.0,3.0,46,0.00,,,0.00,meteohub,2013-11-16 04:52:00,
2013-11-15 23:57:00,44.2,24.8,30.20,South,180,1.0,3.0,46,0.00,,,0.00,meteohub,2013-11-16 04:57:00,